Location: Brno
(49.2000°N, 16.6330°E)
Time: 13:26:28
(UTC+02:00)

Vanguard 1 - All Passes

Search period start: 02 August 2021 00:00
Search period end: 12 August 2021 00:00
Orbit: 652 x 3831 km, 34.2° (Epoch: 01 August)

Date Brightness Start Highest point End Pass type
(mag) Time Alt. Az. Time Alt. Az. Time Alt. Az.
02 Aug - 11:00:13 10° S 11:02:16 12° SSE 11:04:35 10° SE daylight
02 Aug - 13:16:28 10° SW 13:21:13 24° S 13:28:10 10° SE daylight
02 Aug - 15:35:24 10° WSW 15:41:21 22° SSW 15:50:04 10° SSE daylight
02 Aug - 18:00:55 10° SW 18:02:28 10° SSW 18:04:07 10° SSW daylight
03 Aug - 11:19:51 10° SSW 11:22:43 15° SSE 11:26:09 10° SE daylight
03 Aug - 13:37:07 10° SW 13:41:53 23° S 13:48:51 10° SE daylight
03 Aug - 15:56:46 10° SW 16:02:10 18° SSW 16:09:36 10° SSE daylight
04 Aug - 11:39:58 10° SSW 11:43:15 17° SSE 11:47:19 10° SE daylight
04 Aug - 13:57:54 10° SW 14:02:36 22° S 14:09:19 10° SE daylight
04 Aug - 16:18:47 10° SW 16:23:00 14° SSW 16:28:17 10° S daylight
05 Aug - 12:00:20 10° SW 12:03:49 18° S 12:08:14 10° SE daylight
05 Aug - 14:18:54 10° SW 14:23:21 19° S 14:29:29 10° SSE daylight
06 Aug - 12:20:53 10° SW 12:24:25 19° S 12:28:57 10° SE daylight
06 Aug - 14:40:13 10° SW 14:44:06 16° SSW 14:49:10 10° SSE daylight
07 Aug - 10:24:08 10° S 10:26:01 12° SSE 10:28:01 10° SE daylight
07 Aug - 12:41:37 10° SW 12:45:04 18° S 12:49:28 10° SE daylight
07 Aug - 15:02:16 10° SW 15:04:54 12° SSW 15:07:57 10° S daylight
08 Aug - 10:44:12 10° SSW 10:46:34 14° S 10:49:09 10° SE daylight
08 Aug - 13:02:34 10° SW 13:05:45 16° S 13:09:41 10° SSE daylight
09 Aug - 11:04:36 10° SSW 11:07:09 15° S 11:09:58 10° SE daylight
09 Aug - 13:23:55 10° SW 13:26:26 13° S 13:29:25 10° SSE daylight
10 Aug - 11:25:15 10° SSW 11:27:45 14° S 11:30:33 10° SSE daylight
11 Aug - 09:27:41 10° SSW 09:29:19 12° S 09:30:58 10° SSE daylight
11 Aug - 11:46:12 10° SSW 11:48:23 13° S 11:50:47 10° SSE daylight
